This is the latest recevied weather packets stored in our database for station/object KC5TIL-3. If no packets are shown the sender has not sent any weather packets the latest 10 day(s).
| Time | Temp. | Humidity | Pressure | Rain* | Wind** | Luminosity | Snow |
|---|---|---|---|---|---|---|---|
| 1787410544 | 33.33° C | 19% | 1014.8 hPa | 0 mm | 1.79 m/s, 351° | - | - |
| 1787410246 | 33.33° C | 19% | 1014.8 hPa | 0 mm | 1.79 m/s, 251° | - | - |
| 1787409948 | 32.78° C | 20% | 1014.8 hPa | 0 mm | 1.34 m/s, 112° | - | - |
| 1787409641 | 32.22° C | 21% | 1014.8 hPa | 0 mm | 1.34 m/s, 248° | - | - |
| 1787409343 | 31.67° C | 21% | 1014.8 hPa | 0 mm | 1.79 m/s, 173° | - | - |
| 1787409045 | 31.67° C | 21% | 1014.8 hPa | 0 mm | 3.13 m/s, 181° | - | - |
| 1787408744 | 31.11° C | 22% | 1014.8 hPa | 0 mm | 3.13 m/s, 237° | - | - |
| 1787408445 | 31.67° C | 22% | 1014.8 hPa | 0 mm | 1.34 m/s, 280° | - | - |
| 1787408142 | 31.11° C | 23% | 1014.8 hPa | 0 mm | 1.79 m/s, 165° | - | - |
| 1787407841 | 30.56° C | 23% | 1014.8 hPa | 0 mm | 1.79 m/s, 196° | - | - |
| 1787407543 | 30.56° C | 23% | 1014.8 hPa | 0 mm | 2.24 m/s, 356° | - | - |
| 1787407244 | 30.56° C | 23% | 1013.8 hPa | 0 mm | 1.79 m/s, 291° | - | - |
| 1787406943 | 30.56° C | 23% | 1013.8 hPa | 0 mm | 2.24 m/s, 68° | - | - |
| 1787406645 | 30° C | 25% | 1013.8 hPa | 0 mm | 1.79 m/s, 225° | - | - |
| 1787406347 | 30° C | 26% | 1013.8 hPa | 0 mm | 1.79 m/s, 229° | - | - |
| 1787406027 | 29.44° C | 27% | 1013.8 hPa | 0 mm | 3.13 m/s, 227° | - | - |
| 1787405728 | 28.89° C | 27% | 1013.8 hPa | 0 mm | 2.24 m/s, 203° | - | - |
| 1787405430 | 28.89° C | 28% | 1013.8 hPa | 0 mm | 1.79 m/s, 189° | - | - |
| 1787405129 | 28.33° C | 28% | 1013.8 hPa | 0 mm | 2.68 m/s, 195° | - | - |
| 1787404831 | 28.33° C | 28% | 1013.8 hPa | 0 mm | 3.13 m/s, 202° | - | - |
| 1787404533 | 28.33° C | 29% | 1013.8 hPa | 0 mm | 2.24 m/s, 188° | - | - |
| 1787404231 | 28.33° C | 29% | 1013.8 hPa | 0 mm | 2.68 m/s, 235° | - | - |
| 1787403933 | 28.33° C | 29% | 1013.8 hPa | 0 mm | 2.24 m/s, 253° | - | - |
| 1787403635 | 27.78° C | 29% | 1013.8 hPa | 0 mm | 2.68 m/s, 216° | - | - |
| 1787403333 | 27.78° C | 29% | 1013.8 hPa | 0 mm | 2.24 m/s, 203° | - | - |
* Rain latest hour (hover to see other rain measurements)
** Current wind speed in m/s (hover to see current wind gust speed)